Mpanda Airport

Jump to: basic info | weather | comments

Related pages: nearby airports | nearby navaids | notams | map

Basic information (top)

Codes: HTMP
Location: lon -6.350000, lat 31.083000, elev 3,520 ft / 1,073 m msl
Status: small_airport

Weather (top)

Current conditions for Sumbawanga Airport 103nm (191km) SSE (rec'd 2014/11/28 12:00Z):

HTSU 281200Z 00000KT 9999 FEW017 FEW019CB BKN080 22/13 Q1021

Airport forecast for Julius Nyerere International Airport 485nm (899km) E (rec'd 2014/11/28 00:42Z):

TAF TAF HTDA 272200Z 2800/2906 00000KT 9999 FEW022 
      TEMPO 2802/2805 5000 MIFG SCT023 
      BECMG 2807/2812 VRB10KT 9999 BKN026 FEW028CB 
     FM281500 09010KT SCT025 
      BECMG 2903/2906 00000KT 9999 SCT024 FEW025CB

Latest comments (top)

re: Uwanja wa ndege Mpanda: Thanks God Mpanda is on the right path, ... [read]

Uwanja wa ndege Mpanda: Uwanja ni mzuri saana, [read]

matengenezo: uwanja ukikamilika utakuwa mzuri.mmejitahidi. [read]

More... (top)

See also NOTAMs and nearby airports and navaids, or visit the Mpanda Airport page at the main OurAirports website..